Location: Waco, TX
(31.5480°N, 97.1670°W)
Time: 13:10:24
(UTC-05:00)

ISS - Pass Details

Date: 09 May 2021
Orbit: 417 x 422 km, 51.6° (Epoch: 15 May)

Event Time Altitude Azimuth Distance (km) Brightness Sun altitude
Rises 22:39:34 0° 196° (SSW) 2,341 - -26.8°
Reaches altitude 10° 22:41:58 10° 179° (S) 1,483 - -27.1°
Maximum altitude 22:44:33 21° 128° (SE) 988 - -27.5°
Drops below altitude 10° 22:47:10 10° 77° (ENE) 1,492 - -27.9°
Sets 22:49:35 0° 60° (ENE) 2,359 - -28.2°
